AT627 Weather Reports


time (UTC)temp
C
wind
direction
speed
KPH
gust
KPH
rain 1hr
cm
rain 24hr
cm
rain mn
cm
humidity
%
barometer
mb
20260510081530 10 359 3.2 6.4 0.00 0.51 0.00 97 985.9
20260510081031 10 121 3.2 6.4 0.00 0.51 0.00 97 985.6
20260510080530 10 2 3.2 6.4 0.00 0.51 0.00 97 985.6
20260510080031 10 189 3.2 6.4 0.00 0.51 0.00 97 985.8
20260510075531 10 45 3.2 6.4 0.00 0.51 0.00 97 985.6
20260510075309 10 117 3.2 9.7 0.00 0.51 0.00 97 985.7
20260510074532 10 18 4.8 9.7 0.00 0.51 0.00 97 985.5
20260510074031 10 97 4.8 8.0 0.00 0.51 0.00 97 985.7
20260510073534 9 292 1.6 6.4 0.00 0.51 0.00 97 985.4
20260510073031 9 53 0.0 1.6 0.00 0.51 0.00 96 985.0
20260510072532 9 70 1.6 3.2 0.00 0.51 0.00 96 984.9
20260510072030 9 55 1.6 3.2 0.00 0.51 0.00 96 984.9
20260510071530 9 74 1.6 3.2 0.00 0.51 0.00 96 984.9
20260510071030 10 44 1.6 3.2 0.00 0.51 0.00 96 985.0
20260510070530 10 115 1.6 3.2 0.00 0.51 0.00 96 985.0
20260510070030 10 0 1.6 3.2 0.00 0.51 0.00 96 985.0
20260510065530 10 75 3.2 4.8 0.00 0.51 0.00 96 985.0
20260510065029 10 60 3.2 4.8 0.00 0.51 0.00 96 985.0
20260510064529 10 79 3.2 4.8 0.00 0.51 0.00 96 985.0
20260510064029 10 50 1.6 3.2 0.00 0.51 0.00 96 985.0
20260510063529 10 34 1.6 4.8 0.00 0.51 0.00 96 985.0
20260510063254 10 71 3.2 6.4 0.00 0.51 0.00 96 984.8
20260510062757 10 98 3.2 6.4 0.00 0.51 0.00 96 984.7
20260510062523 11 17 1.6 6.4 0.00 0.51 0.00 96 984.8
20260510061754 11 85 1.6 6.4 0.00 0.51 0.00 96 984.8
20260510061028 11 10 3.2 6.4 0.00 0.51 0.00 96 984.6
20260510060529 11 49 3.2 6.4 0.00 0.51 0.00 96 984.5
20260510060029 11 5 1.6 3.2 0.00 0.51 0.00 96 984.5
20260510055529 11 6 1.6 4.8 0.00 0.51 0.00 96 984.6
20260510055029 11 77 1.6 4.8 0.00 0.51 0.00 96 984.7
20260510054529 11 90 1.6 3.2 0.00 0.51 0.00 96 984.7
20260510054029 11 8 1.6 4.8 0.00 0.51 0.00 96 984.7
20260510053529 11 82 1.6 4.8 0.00 0.51 0.00 96 984.8
20260510053256 11 131 1.6 4.8 0.00 0.51 0.00 96 984.7
20260510052529 11 243 1.6 6.4 0.00 0.51 0.00 96 984.8
20260510052028 11 65 1.6 6.4 0.00 0.51 0.00 96 984.9
20260510051529 11 0 1.6 4.8 0.00 0.51 0.00 96 984.9
20260510051029 11 55 1.6 6.4 0.00 0.51 0.00 96 984.9
20260510050529 11 9 1.6 6.4 0.00 0.51 0.00 96 984.9
20260510050028 11 47 1.6 6.4 0.00 0.51 0.00 96 984.9
20260510045529 10 10 1.6 6.4 0.00 0.51 0.00 96 985.0
20260510045029 10 24 1.6 4.8 0.00 0.51 0.00 96 985.0
20260510044530 10 0 1.6 6.4 0.00 0.51 0.00 96 985.0
20260510044030 10 33 1.6 6.4 0.00 0.51 0.00 96 985.0
20260510043530 10 50 1.6 4.8 0.00 0.51 0.00 96 984.9
20260510043029 10 60 1.6 4.8 0.00 0.51 0.00 96 985.1
20260510042530 10 52 3.2 4.8 0.00 0.51 0.00 96 985.1
20260510042030 10 46 1.6 4.8 0.00 0.51 0.00 96 985.1
20260510041530 10 39 1.6 4.8 0.00 0.51 0.00 96 985.1
20260510041030 10 0 1.6 6.4 0.00 0.51 0.00 96 985.2
20260510040530 11 58 3.2 6.4 0.00 0.51 0.00 96 985.2
20260510040030 11 59 1.6 6.4 0.00 0.51 0.00 96 985.2
20260510035529 11 53 1.6 6.4 0.00 0.51 0.10 96 985.2
20260510035319 11 62 3.2 6.4 0.00 0.51 0.10 96 985.1
20260510034529 10 52 3.2 6.4 0.00 0.51 0.10 96 985.1
20260510034028 10 51 1.6 6.4 0.00 0.51 0.10 96 985.2
20260510033530 10 29 1.6 4.8 0.00 0.51 0.10 96 985.1
20260510033317 10 30 1.6 4.8 0.00 0.51 0.10 95 985.1
20260510032530 10 55 1.6 4.8 0.00 0.51 0.10 95 985.0
20260510032318 11 34 1.6 6.4 0.00 0.51 0.10 95 985.1
20260510031820 11 53 1.6 6.4 0.00 0.51 0.10 95 985.1
20260510031030 11 43 1.6 6.4 0.00 0.51 0.10 95 985.0
20260510030531 11 55 1.6 6.4 0.00 0.51 0.10 95 985.0
20260510030030 11 43 1.6 6.4 0.00 0.51 0.10 95 985.0
20260510025530 11 56 1.6 6.4 0.00 0.51 0.10 95 984.9
20260510025029 11 0 1.6 6.4 0.00 0.51 0.10 95 984.8
20260510024529 11 53 1.6 6.4 0.00 0.51 0.10 95 984.7
20260510024029 11 296 1.6 6.4 0.00 0.51 0.10 95 984.8
20260510023530 11 248 3.2 6.4 0.00 0.51 0.10 95 984.8
20260510023031 11 356 3.2 6.4 0.00 0.51 0.10 95 984.8
20260510022531 11 47 1.6 6.4 0.00 0.51 0.10 95 984.8
20260510022030 11 44 1.6 6.4 0.00 0.51 0.10 95 984.9
20260510021530 11 342 1.6 6.4 0.00 0.51 0.10 95 984.8
20260510021031 11 54 1.6 4.8 0.00 0.51 0.10 95 984.8
20260510020530 11 83 1.6 6.4 0.00 0.51 0.10 95 984.7
20260510020030 11 41 1.6 6.4 0.00 0.51 0.10 95 984.7
20260510015534 11 47 1.6 6.4 0.00 0.51 0.10 95 984.6
20260510015317 11 3 1.6 4.8 0.00 0.51 0.10 95 984.7
20260510014531 11 0 1.6 6.4 0.00 0.51 0.10 94 984.6
20260510014031 11 44 1.6 6.4 0.00 0.51 0.10 94 984.6
20260510013530 11 55 1.6 4.8 0.00 0.51 0.10 94 984.4
20260510013030 11 46 1.6 4.8 0.00 0.51 0.10 94 984.4
20260510012530 11 0 1.6 4.8 0.00 0.51 0.10 94 984.3
20260510012030 11 58 1.6 4.8 0.00 0.51 0.10 94 984.4
20260510011530 11 42 1.6 4.8 0.00 0.51 0.10 94 984.4
20260510011030 12 0 1.6 4.8 0.00 0.51 0.10 94 984.3
20260510010529 12 82 1.6 4.8 0.00 0.51 0.10 93 984.3
20260510010031 12 62 1.6 4.8 0.00 0.51 0.10 93 984.3
20260510005530 12 356 1.6 4.8 0.00 0.51 0.10 93 984.3
20260510005029 12 74 3.2 4.8 0.00 0.51 0.10 93 984.3
20260510004528 12 37 3.2 4.8 0.00 0.51 0.10 93 984.1
20260510004028 12 79 1.6 4.8 0.00 0.51 0.10 93 984.1
20260510003528 12 36 1.6 4.8 0.00 0.51 0.10 92 984.0
20260510003028 12 8 1.6 4.8 0.00 0.51 0.10 92 984.0
20260510002528 12 73 1.6 4.8 0.00 0.51 0.10 92 984.0
20260510002029 12 61 3.2 6.4 0.00 0.51 0.10 91 984.0
20260510001528 12 59 3.2 6.4 0.00 0.51 0.10 91 983.9
20260510001028 13 67 3.2 4.8 0.00 0.51 0.10 90 983.9
20260510000528 13 37 1.6 4.8 0.00 0.51 0.10 90 984.0
20260510000025 13 21 1.6 3.2 0.00 0.51 0.10 89 983.9
20260509235525 13 32 1.6 4.8 0.00 0.51 0.10 89 983.8
20260509235026 13 61 1.6 4.8 0.00 0.51 0.10 88 983.7
20260509234811 13 52 1.6 3.2 0.00 0.51 0.10 88 983.7
20260509234025 14 0 1.6 4.8 0.00 0.51 0.10 87 983.7
20260509233605 14 78 1.6 4.8 0.00 0.51 0.10 86 983.8
20260509233552 14 73 1.6 4.8 0.00 0.51 0.10 86 983.8
20260509232525 14 0 1.6 3.2 0.00 0.51 0.10 85 983.9
20260509232025 14 0 1.6 3.2 0.00 0.51 0.10 84 983.9
20260509231526 15 43 1.6 3.2 0.00 0.51 0.10 83 983.8
20260509231108 15 99 1.6 3.2 0.00 0.51 0.10 80 983.9
20260509231054 15 65 1.6 3.2 0.00 0.51 0.10 81 983.9
20260509230022 15 25 0.0 3.2 0.00 0.51 0.10 79 983.9
20260509225522 15 124 0.0 3.2 0.00 0.51 0.10 78 983.9
20260509225023 15 19 0.0 3.2 0.00 0.51 0.10 78 983.8
20260509224524 16 50 0.0 3.2 0.00 0.51 0.10 77 983.8
20260509224309 16 65 0.0 3.2 0.00 0.51 0.10 75 983.8
20260509223524 16 188 0.0 3.2 0.00 0.51 0.10 75 983.8
20260509223308 16 0 0.0 3.2 0.00 0.51 0.10 75 983.8
20260509222810 16 33 1.6 3.2 0.00 0.51 0.10 75 983.8
20260509222024 15 53 1.6 3.2 0.00 0.51 0.10 76 983.9
20260509221806 15 179 1.6 3.2 0.00 0.51 0.10 75 983.9
20260509221020 15 312 1.6 3.2 0.00 0.51 0.10 75 983.9
20260509220521 15 6 0.0 3.2 0.00 0.51 0.10 75 983.9
20260509220021 15 0 0.0 3.2 0.00 0.51 0.10 77 983.9
20260509215521 15 77 0.0 1.6 0.00 0.51 0.10 80 984.0
20260509215021 15 0 0.0 1.6 0.00 0.51 0.10 78 984.0
20260509214519 15 0 0.0 3.2 0.00 0.51 0.10 80 984.0
20260509214017 15 0 1.6 4.8 0.00 0.51 0.10 81 984.0
20260509213518 15 7 1.6 4.8 0.00 0.51 0.10 81 983.9
20260509213302 15 178 1.6 3.2 0.00 0.51 0.10 79 983.8
20260509212519 15 87 1.6 4.8 0.00 0.51 0.10 81 983.9
20260509212310 15 90 1.6 4.8 0.00 0.51 0.10 82 983.9
20260509211516 15 325 1.6 3.2 0.00 0.51 0.10 85 983.9
20260509211017 14 76 0.0 3.2 0.00 0.51 0.10 85 984.0
20260509210517 14 0 1.6 3.2 0.00 0.51 0.10 85 984.1
20260509210012 14 95 1.6 3.2 0.00 0.51 0.10 83 984.0
20260509205512 14 0 1.6 3.2 0.00 0.51 0.10 82 984.1
20260509205012 14 0 1.6 3.2 0.00 0.51 0.10 82 984.0
20260509204801 14 65 1.6 3.2 0.00 0.51 0.10 81 984.1
20260509204300 15 0 1.6 3.2 0.00 0.51 0.10 82 984.1
20260509203550 15 41 1.6 4.8 0.00 0.51 0.10 80 984.1
20260509203537 15 64 1.6 3.2 0.00 0.51 0.10 82 984.1
20260509202512 15 99 1.6 4.8 0.00 0.51 0.10 79 984.1
20260509202011 15 120 1.6 4.8 0.00 0.51 0.10 79 984.1
20260509201802 15 0 1.6 4.8 0.00 0.51 0.10 80 984.2
20260509201011 15 47 1.6 4.8 0.00 0.51 0.10 80 984.3
20260509200759 15 26 1.6 4.8 0.03 0.51 0.10 84 984.4
20260509200007 15 104 1.6 4.8 0.03 0.51 0.10 84 984.4
20260509195506 14 25 1.6 4.8 0.03 0.51 0.10 85 984.3
20260509195002 14 114 1.6 4.8 0.03 0.51 0.10 84 984.2
20260509194620 13 0 1.6 4.8 0.03 0.51 0.10 86 984.3
20260509194615 13 0 1.6 3.2 0.03 0.51 0.10 86 984.3
20260509194554 13 35 1.6 4.8 0.03 0.51 0.10 84 984.2
20260509193001 13 356 1.6 3.2 0.03 0.51 0.10 88 984.4
20260509192500 13 21 1.6 3.2 0.03 0.51 0.10 88 984.4
20260509192001 13 0 1.6 4.8 0.03 0.51 0.10 87 984.5
20260509191501 13 0 1.6 4.8 0.03 0.51 0.10 87 984.6
20260509191002 13 86 1.6 4.8 0.03 0.51 0.10 86 984.7
20260509190500 13 0 1.6 3.2 0.03 0.48 0.10 85 985.0
20260509190001 13 329 1.6 4.8 0.03 0.48 0.10 84 985.1
20260509185501 13 0 1.6 4.8 0.03 0.48 0.10 85 985.1
20260509185003 13 61 1.6 3.2 0.03 0.48 0.10 86 985.1
20260509184504 13 107 1.6 3.2 0.03 0.48 0.10 86 985.3
20260509184002 12 63 1.6 4.8 0.03 0.48 0.10 86 985.3
20260509183503 12 356 1.6 4.8 0.03 0.48 0.10 85 985.4
20260509183002 12 353 0.0 3.2 0.03 0.48 0.10 87 985.5
20260509182503 12 56 0.0 3.2 0.03 0.48 0.10 88 985.5
20260509182001 12 0 0.0 3.2 0.00 0.48 0.10 87 985.6
20260509181503 12 0 0.0 3.2 0.03 0.48 0.10 86 985.6
20260509181249 12 81 1.6 3.2 0.03 0.48 0.10 86 985.8
20260509180503 12 9 1.6 3.2 0.00 0.48 0.10 85 985.8
20260509180003 12 8 1.6 3.2 0.00 0.48 0.10 85 985.8
20260509175752 12 351 1.6 3.2 0.00 0.48 0.10 85 985.8
20260509175003 12 343 1.6 3.2 0.00 0.48 0.10 85 985.8
20260509174502 12 308 1.6 4.8 0.00 0.48 0.10 85 985.8
20260509174003 13 272 1.6 4.8 0.00 0.48 0.10 84 985.9
20260509173501 13 32 1.6 3.2 0.00 0.48 0.10 84 985.8
20260509173002 13 274 1.6 3.2 0.00 0.48 0.10 85 985.7
20260509172501 13 62 1.6 3.2 0.00 0.48 0.10 84 985.8
20260509172250 13 38 1.6 4.8 0.00 0.48 0.10 84 985.9
20260509171753 13 0 1.6 4.8 0.00 0.46 0.10 82 985.9
20260509171044 13 335 1.6 6.4 0.00 0.46 0.10 83 985.9
20260509171031 13 0 1.6 4.8 0.00 0.46 0.10 82 986.0
20260509170002 13 16 1.6 6.4 0.00 0.46 0.10 82 986.0
20260509165503 13 321 3.2 6.4 0.03 0.46 0.10 80 986.0
20260509165043 13 204 1.6 4.8 0.10 0.46 0.10 82 986.0
20260509165030 13 351 1.6 4.8 0.05 0.46 0.10 83 986.0
20260509164251 13 301 1.6 3.2 0.10 0.46 0.10 81 985.9
20260509163501 13 311 1.6 3.2 0.15 0.46 0.10 84 985.8
20260509163001 13 202 1.6 4.8 0.18 0.46 0.10 83 985.6
20260509162503 12 121 1.6 4.8 0.20 0.46 0.10 83 985.3
20260509162004 12 0 1.6 4.8 0.25 0.46 0.10 84 985.2
20260509161752 12 124 1.6 4.8 0.28 0.46 0.10 85 985.3
20260509161252 12 108 1.6 3.2 0.30 0.46 0.10 86 985.4
20260509160503 12 333 1.6 3.2 0.33 0.46 0.10 88 985.5
20260509160002 12 1 3.2 3.2 0.33 0.46 0.43 88 985.7
20260509155502 12 343 3.2 3.2 0.36 0.43 0.43 88 985.9
20260509155001 12 343 1.6 3.2 0.33 0.41 0.38 88 985.9
20260509154511 12 212 1.6 3.2 0.33 0.38 0.36 88 986.2
20260509154229 13 350 0.0 3.2 0.30 0.36 0.33 88 986.3
20260509153502 13 216 1.6 3.2 0.28 0.33 0.30 88 986.5
20260509153004 13 287 1.6 4.8 0.25 0.28 0.25 86 986.4
20260509152508 13 314 1.6 6.4 0.18 0.20 0.18 84 986.6
20260509152502 13 14 1.6 6.4 0.23 0.25 0.23 86 986.4
20260509151502 13 5 1.6 6.4 0.15 0.18 0.18 84 986.7
20260509151003 13 56 1.6 6.4 0.13 0.15 0.15 83 986.5
20260509150505 13 250 1.6 6.4 0.10 0.10 0.10 82 986.6
20260509150501 13 205 1.6 4.8 0.10 0.13 0.13 82 986.6
20260509145502 13 321 3.2 6.4 0.08 0.10 0.08 81 986.4
20260509145002 14 189 1.6 6.4 0.05 0.05 0.05 80 986.5
20260509144502 14 254 1.6 6.4 0.05 0.05 0.05 81 986.3
20260509144002 13 286 3.2 6.4 0.03 0.05 0.03 80 986.2
20260509143502 13 274 3.2 6.4 0.03 0.03 0.03 80 986.2
20260509143002 13 36 3.2 6.4 0.03 0.03 0.03 78 986.0
20260509142503 14 303 1.6 6.4 0.03 0.03 0.03 80 986.0
20260509142003 14 163 3.2 6.4 0.03 0.03 0.03 79 986.1
20260509141502 14 212 3.2 6.4 0.03 0.03 0.00 78 986.0
20260509141001 14 284 3.2 6.4 0.00 0.03 0.00 78 986.0
20260509140502 14 205 3.2 6.4 0.00 0.03 0.00 77 986.0
20260509140002 14 313 3.2 6.4 0.00 0.00 0.00 77 985.8
20260509135501 14 171 3.2 6.4 0.00 0.00 0.00 76 985.9
20260509135002 14 203 3.2 8.0 0.00 0.00 0.00 76 985.8
20260509134501 14 247 3.2 11.3 0.00 0.00 0.00 76 985.7
20260509134252 14 196 4.8 11.3 0.00 0.00 0.00 77 985.5
20260509133501 14 158 3.2 9.7 0.00 0.00 0.00 77 985.6
20260509133001 14 0 3.2 6.4 0.00 0.00 0.00 77 985.6
20260509132729 14 193 3.2 6.4 0.00 0.00 0.00 77 985.7
20260509132000 13 171 3.2 6.4 0.00 0.00 0.00 76 985.5
20260509131733 13 80 3.2 9.7 0.00 0.00 0.00 77 985.6
20260509131729 13 165 3.2 6.4 0.00 0.00 0.00 77 985.5
20260509130500 13 282 3.2 9.7 0.00 0.00 0.00 77 985.6
20260509130000 13 204 3.2 9.7 0.00 0.00 0.00 78 985.7
20260509125501 13 171 3.2 6.4 0.00 0.00 0.00 78 985.6
20260509125232 13 346 3.2 6.4 0.00 0.00 0.00 78 985.6
20260509124501 13 266 3.2 8.0 0.00 0.00 0.00 78 985.4
20260509124001 13 181 3.2 8.0 0.00 0.00 0.00 77 985.4
20260509123501 13 135 3.2 6.4 0.00 0.00 0.00 78 985.5
20260509123007 13 184 3.2 6.4 0.00 0.00 0.00 78 985.6
20260509122506 13 151 1.6 6.4 0.00 0.00 0.00 78 985.6
20260509122232 12 8 1.6 3.2 0.00 0.00 0.00 79 985.7
20260509121726 12 125 1.6 3.2 0.00 0.00 0.00 80 985.7
20260509121001 12 250 1.6 3.2 0.00 0.00 0.00 79 985.6
20260509120501 12 225 1.6 3.2 0.00 0.00 0.00 80 985.6
20260509120005 12 60 1.6 3.2 0.00 0.00 0.00 79 985.5
20260509115730 12 157 1.6 3.2 0.00 0.00 0.00 80 985.6
20260509115002 12 0 0.0 3.2 0.00 0.00 0.00 80 985.6
20260509114503 12 0 0.0 3.2 0.00 0.00 0.00 80 985.5
20260509114003 12 54 1.6 3.2 0.00 0.00 0.00 80 985.5
20260509113503 12 305 1.6 3.2 0.00 0.00 0.00 80 985.5
20260509113004 12 0 0.0 1.6 0.00 0.00 0.00 80 985.4
20260509112728 12 15 1.6 3.2 0.00 0.00 0.00 80 985.5
20260509112003 12 20 1.6 3.2 0.00 0.00 0.00 80 985.5
20260509111504 12 41 1.6 3.2 0.00 0.00 0.00 79 985.5
20260509111002 12 16 1.6 3.2 0.00 0.00 0.00 79 985.5
20260509110505 12 343 1.6 3.2 0.00 0.00 0.00 79 985.4
20260509110004 12 338 0.0 3.2 0.00 0.00 0.00 79 985.5
20260509105504 12 48 1.6 3.2 0.00 0.00 0.00 79 985.5
20260509105004 11 24 1.6 3.2 0.00 0.00 0.00 79 985.3
20260509104505 11 7 1.6 4.8 0.00 0.00 0.00 80 985.3
20260509104003 11 0 1.6 4.8 0.00 0.00 0.00 81 985.2
20260509103504 11 0 1.6 4.8 0.00 0.00 0.00 81 985.2
20260509103004 11 63 1.6 4.8 0.00 0.00 0.00 80 985.2
20260509102503 11 70 1.6 4.8 0.00 0.00 0.00 79 985.1
20260509102003 11 54 0.0 4.8 0.00 0.00 0.00 79 985.1
20260509101501 11 0 1.6 3.2 0.00 0.00 0.00 79 985.1
20260509101002 11 343 1.6 3.2 0.00 0.00 0.00 80 985.1
20260509100504 11 1 1.6 3.2 0.00 0.00 0.00 80 985.0
20260509100002 11 0 0.0 3.2 0.00 0.00 0.00 80 985.0
20260509095502 11 23 1.6 3.2 0.00 0.00 0.00 80 985.0
20260509095240 11 9 1.6 3.2 0.00 0.00 0.00 80 985.1
20260509095213 11 21 1.6 3.2 0.00 0.00 0.00 80 985.0
20260509094003 11 31 1.6 3.2 0.00 0.00 0.00 80 985.0
20260509093502 11 247 1.6 3.2 0.00 0.00 0.00 80 985.1
20260509093003 11 82 1.6 3.2 0.00 0.00 0.00 80 985.1
20260509092505 11 45 1.6 3.2 0.00 0.03 0.00 80 985.1
20260509092003 12 46 0.0 1.6 0.00 0.03 0.00 80 985.1
20260509091956 12 0 1.6 3.2 0.00 0.03 0.00 79 985.1
20260509091004 12 19 1.6 3.2 0.00 0.03 0.00 79 985.1
20260509090504 12 325 1.6 3.2 0.00 0.03 0.00 79 985.2
20260509090233 12 0 1.6 3.2 0.00 0.03 0.00 79 985.2
20260509085503 12 21 1.6 6.4 0.00 0.03 0.00 79 985.2
20260509085002 12 47 1.6 6.4 0.00 0.03 0.00 79 985.2
20260509084502 12 55 1.6 4.8 0.00 0.03 0.00 79 985.3
20260509084002 12 102 1.6 4.8 0.00 0.03 0.00 79 985.4
20260509083730 12 8 3.2 8.0 0.00 0.03 0.00 79 985.4
20260509083001 12 0 3.2 8.0 0.00 0.03 0.00 79 985.5
20260509082502 12 13 1.6 6.4 0.00 0.03 0.00 79 985.5
20260509082230 11 202 3.2 8.0 0.00 0.03 0.00 79 985.5